Regional Weather Roundup
Issued by NWS

Home | Current Version | Previous Version | Text Only | Print | Product List | Glossary Off
Versions: 1 2 3 4 5 6 7 8 9 10 11 12 13 14 15 16 17 18 19 20 21 22 23 24 25 26 27 28 29 30 31 32 33 34 35 36 37 38 39 40 41 42 43 44 45 46 47 48 49 50

484
ASUS43 KOAX 261002
RWRNE

WEATHER ROUNDUP FOR NEBRASKA
NATIONAL WEATHER SERVICE OMAHA NE
500 AM CDT MON SEP 26 2016

NOTES: SATELLITE DATA IS BEING USED TO AUGMENT CLOUD COVER ABOVE
       12000 FEET.
       "FAIR" INDICATES FEW OR NO CLOUDS BELOW 12,000 FEET WITH NO
       SIGNIFICANT WEATHER AND/OR OBSTRUCTIONS TO VISIBILITY.

  * THESE STATIONS DO NOT REPORT WEATHER SUCH AS RAIN...SNOW OR FOG.

NEZ001>004-019>022-054>056-261100-
NEBRASKA PANHANDLE

CITY           SKY/WX    TMP DP  RH WIND       PRES   REMARKS
SCOTTSBLUFF    CLEAR     38  35  89 NW3       30.36F
ALLIANCE       CLEAR     32  30  92 CALM      30.35F
CHADRON        CLEAR     40  33  76 SW5       30.32F
KIMBALL        CLEAR     38  35  87 W8        30.39F WCI  33
SIDNEY         FLURRIES  36  33  89 W9        30.39F WCI  29
$$

NEZ057>060-069>072-079>082-261100-
SOUTHWEST NEBRASKA

CITY           SKY/WX    TMP DP  RH WIND       PRES   REMARKS
NORTH PLATTE   CLEAR     36  30  79 W3        30.36F
IMPERIAL       CLEAR     38  33  82 W3        30.37F
LEXINGTON      CLEAR     37  32  84 NW8       30.34S WCI  30
MCCOOK         CLEAR     37  33  85 SW5       30.36S WCI  33
OGALLALA       CLEAR     36  33  90 W5        30.38R WCI  32
$$

NEZ005>010-023>029-035>040-094-261100-
NORTH CENTRAL NEBRASKA

CITY           SKY/WX    TMP DP  RH WIND       PRES   REMARKS
VALENTINE      CLEAR     40  31  70 W8        30.29F WCI  34
AINSWORTH      CLEAR     42  36  78 W7        30.29S
BROKEN BOW     CLEAR     35  31  85 SW3       30.32S
O`NEILL        CLEAR     43  33  67 W7        30.25F
ORD            LGT RAIN  36  31  82 N5        30.29S WCI  32
THEDFORD       CLEAR     39  33  80 W6        30.33S WCI  34
$$

NEZ041-046>049-061>064-073>077-083>087-261100-
SOUTH CENTRAL NEBRASKA

CITY           SKY/WX    TMP DP  RH WIND       PRES   REMARKS
GRAND ISLAND   CLEAR     41  35  79 W8        30.30S
AURORA         CLEAR     42  38  89 W5        30.29S
HASTINGS       CLEAR     43  33  68 W6        30.31F
HEBRON         CLEAR     42  38  84 CALM      30.29S
HOLDREGE       CLEAR     41  32  70 W5        30.34R
KEARNEY *      CLEAR     43  30  61 W5        30.32S
YORK           CLEAR     43  37  81 W9        30.28S
$$

NEZ011>018-030>034-042>045-261100-
NORTHEAST NEBRASKA

CITY           SKY/WX    TMP DP  RH WIND       PRES   REMARKS
NORFOLK        CLEAR     45  33  63 W9        30.23S
ALBION         CLEAR     37  34  89 CALM      30.27S
FREMONT        CLEAR     46  39  79 W9        30.23S
TEKAMAH        CLEAR     48  38  68 W8        30.20S
WAYNE          CLEAR     46  36  69 W9        30.22S
$$

NEZ050>053-065>068-078-088>093-261100-
SOUTHEAST NEBRASKA

CITY           SKY/WX    TMP DP  RH WIND       PRES   REMARKS
LINCOLN        CLEAR     49  39  68 W3        30.27R
OMAHA EPPLEY   CLEAR     49  39  68 NW3       30.22R
BEATRICE       CLEAR     44  40  86 CALM      30.27S
FALLS CITY     CLEAR     47  43  86 NW6       30.23S
NEBRASKA CITY  CLEAR     49  31  50 W6        30.24R
PLATTSMOUTH    CLEAR     48  37  66 W8        30.23R
$$

NEZ044-045-051>053-067-261100-
OMAHA AREA

CITY           SKY/WX    TMP DP  RH WIND       PRES   REMARKS
OMAHA EPPLEY   CLEAR     49  39  68 NW3       30.22R
FREMONT        CLEAR     46  39  79 W9        30.23S
MILLARD        CLEAR     48  40  74 CALM      30.23R
OFFUTT AFB     CLEAR     43  41  93 CALM      30.21S
PLATTSMOUTH    CLEAR     48  37  66 W8        30.23R
WAHOO          FAIR      44  39  85 CALM      30.23S
$$




USA.gov is the U.S. government's official web portal to all federal, state and local government web resources and services.